Weather History for KTMK - April, 2014

Change the Weather History Date:

Saturday, April 12, 2014

  Actual Average (KMMV) Record (KMMV)
Temperature  
Mean Temperature 46 °F 50 °F  
Max Temperature 55 °F 60 °F 87 °F (1904)
Min Temperature 37 °F 39 °F 27 °F (1970)
Degree Days  
Heating Degree Days 19 16  
Month to date heating degree days 194  
Since 1 July heating degree days 4145  
Cooling Degree Days 0 0  
Month to date cooling degree days 0  
Year to date cooling degree days 0  
Moisture  
Dew Point 43 °F    
Average Humidity 84    
Maximum Humidity 100    
Minimum Humidity 58    
Precipitation  
Precipitation 0.00 in 0.09 in 1.40 in (1955)
Month to date precipitation 1.38  
Year to date precipitation 15.95  
Sea Level Pressure  
Sea Level Pressure 30.11 in    
Wind  
Wind Speed 4 mph (WNW)    
Max Wind Speed 22 mph    
Max Gust Speed 26 mph    
Visibility 10 miles    
Events Fog    
T = Trace of Precipitation, MM = Missing Value Source: NWS Daily Summary

Daily Weather History Graph

Daily Weather History Graph

Search for Another Location

Airport or City:

Trip Planner

Search our weather history database for the weather conditions in past years. The results will help you decide how hot, cold, wet, or windy it might be!

Date:

Astronomy

Apr. 12, 2014 Rise Set
Actual Time 7:35 AM MDT 8:57 PM MDT
Civil Twilight 7:04 AM MDT 9:28 PM MDT
Nautical Twilight 6:27 AM MDT 10:05 PM MDT
Astronomical Twilight 5:48 AM MDT 10:45 PM MDT
Moon 6:35 PM MDT (4/12) 6:12 AM MDT (4/12)
Length of Visible Light 14h 23m
Length of Day
13h 22m
Waxing Gibbous, 93% of the Moon is Illuminated
Apr 12
Waxing Gibbous
Apr 15
Full
Apr 22
Last Quarter
Apr 29
New
May 6
First Quarter

Hourly Weather History & Observations

Time (MDT) Temp. Windchill Dew Point Humidity Pressure Visibility Wind Dir Wind Speed Gust Speed Precip Events Conditions
12:15 AM 46.4 °F - 44.6 °F 93% 30.12 in 10.0 mi Calm Calm - N/A   Clear
12:35 AM 44.6 °F 43.1 °F 42.8 °F 93% 30.11 in 10.0 mi SE 3.5 mph - N/A   Scattered Clouds
12:55 AM 42.8 °F - 42.8 °F 100% 30.11 in 10.0 mi Calm Calm - N/A   Clear
1:15 AM 44.6 °F 43.1 °F 42.8 °F 93% 30.11 in 10.0 mi SE 3.5 mph - N/A   Scattered Clouds
1:35 AM 42.8 °F 40.1 °F 42.8 °F 100% 30.11 in 10.0 mi ESE 4.6 mph - N/A   Mostly Cloudy
1:55 AM 42.8 °F - 42.8 °F 100% 30.11 in 10.0 mi Calm Calm - N/A   Mostly Cloudy
2:15 AM 44.6 °F - 42.8 °F 93% 30.12 in 10.0 mi Calm Calm - N/A   Overcast
2:35 AM 44.6 °F - 42.8 °F 93% 30.11 in 10.0 mi Calm Calm - N/A   Overcast
2:55 AM 42.8 °F - 42.8 °F 100% 30.11 in 10.0 mi Calm Calm - N/A   Overcast
3:15 AM 44.6 °F - 42.8 °F 93% 30.10 in 10.0 mi Calm Calm - N/A   Overcast
3:35 AM 44.6 °F - 42.8 °F 93% 30.10 in 10.0 mi Calm Calm - N/A   Overcast
3:55 AM 44.6 °F - 42.8 °F 93% 30.10 in 10.0 mi Calm Calm - N/A   Overcast
4:15 AM 44.6 °F - 42.8 °F 93% 30.10 in 10.0 mi Calm Calm - N/A   Overcast
4:35 AM 42.8 °F - 41.0 °F 93% 30.10 in 10.0 mi Calm Calm - N/A   Scattered Clouds
4:55 AM 41.0 °F - 41.0 °F 100% 30.10 in 10.0 mi Calm Calm - N/A   Scattered Clouds
5:15 AM 41.0 °F - 41.0 °F 100% 30.10 in 10.0 mi Calm Calm - N/A   Scattered Clouds
5:35 AM 39.2 °F - 39.2 °F 100% 30.10 in 10.0 mi Calm Calm - N/A   Clear
5:55 AM 39.2 °F - 39.2 °F 100% 30.10 in 10.0 mi Calm Calm - N/A   Clear
6:15 AM 37.4 °F - 37.4 °F 100% 30.10 in 10.0 mi Calm Calm - N/A   Clear
6:35 AM 37.4 °F - 37.4 °F 100% 30.10 in 0.5 mi Calm Calm - N/A Fog Fog
6:55 AM 37.4 °F - 37.4 °F 100% 30.10 in 10.0 mi Calm Calm - N/A   Clear
7:15 AM 37.4 °F - 37.4 °F 100% 30.10 in 10.0 mi Calm Calm - N/A   Scattered Clouds
7:35 AM 37.4 °F - 37.4 °F 100% 30.11 in 10.0 mi Calm Calm - N/A   Mostly Cloudy
7:55 AM 37.4 °F - 37.4 °F 100% 30.11 in 10.0 mi Calm Calm - N/A   Overcast
8:15 AM 37.4 °F - 37.4 °F 100% 30.11 in 10.0 mi Calm Calm - N/A   Overcast
8:35 AM 39.2 °F - 39.2 °F 100% 30.12 in 10.0 mi Calm Calm - N/A   Overcast
8:55 AM 41.0 °F - 41.0 °F 100% 30.12 in 10.0 mi Calm Calm - N/A   Overcast
9:15 AM 42.8 °F - 42.8 °F 100% 30.12 in 10.0 mi Calm Calm - N/A   Overcast
9:35 AM 42.8 °F - 42.8 °F 100% 30.13 in 10.0 mi Calm Calm - N/A   Overcast
9:55 AM 44.6 °F - 42.8 °F 93% 30.13 in 10.0 mi Calm Calm - N/A   Overcast
10:15 AM 46.4 °F 45.2 °F 44.6 °F 93% 30.13 in 10.0 mi East 3.5 mph - N/A   Overcast
10:35 AM 50.0 °F - 41.0 °F 71% 30.12 in 10.0 mi Calm Calm - N/A   Overcast
10:55 AM 50.0 °F - 37.4 °F 62% 30.12 in 10.0 mi Calm Calm - N/A   Scattered Clouds
11:15 AM 51.8 °F - 37.4 °F 58% 30.13 in 10.0 mi Calm Calm - N/A   Clear
11:35 AM 51.8 °F - 39.2 °F 62% 30.12 in 10.0 mi Calm Calm - N/A   Clear
11:55 AM 51.8 °F - 39.2 °F 62% 30.12 in 10.0 mi Calm Calm - N/A   Clear
12:15 PM 53.6 °F - 39.2 °F 58% 30.12 in 10.0 mi Calm Calm - N/A   Clear
12:35 PM 53.6 °F - 39.2 °F 58% 30.12 in 10.0 mi West 4.6 mph - N/A   Clear
12:55 PM 55.4 °F - 41.0 °F 58% 30.11 in 10.0 mi West 5.8 mph - N/A   Clear
1:15 PM 55.4 °F - 41.0 °F 58% 30.11 in 10.0 mi WNW 6.9 mph - N/A   Clear
1:35 PM 55.4 °F - 42.8 °F 63% 30.11 in 10.0 mi NW 13.8 mph - N/A   Clear
1:55 PM 55.4 °F - 44.6 °F 67% 30.11 in 10.0 mi NW 13.8 mph - N/A   Clear
2:15 PM 55.4 °F - 46.4 °F 72% 30.10 in 10.0 mi NW 18.4 mph 21.9 mph N/A   Clear
2:35 PM 55.4 °F - 46.4 °F 72% 30.11 in 10.0 mi WNW 19.6 mph 24.2 mph N/A   Clear
2:55 PM 53.6 °F - 46.4 °F 77% 30.11 in 10.0 mi WNW 18.4 mph 23.0 mph N/A   Clear
3:15 PM 55.4 °F - 46.4 °F 72% 30.10 in 10.0 mi WNW 20.7 mph 26.5 mph N/A   Clear
3:35 PM 53.6 °F - 46.4 °F 77% 30.10 in 10.0 mi NW 20.7 mph 25.3 mph N/A   Clear
3:55 PM 55.4 °F - 46.4 °F 72% 30.10 in 10.0 mi WNW 20.7 mph 26.5 mph N/A   Clear
4:15 PM 53.6 °F - 46.4 °F 77% 30.10 in 10.0 mi WNW 20.7 mph 26.5 mph N/A   Clear
4:35 PM 53.6 °F - 46.4 °F 77% 30.10 in 10.0 mi WNW 18.4 mph - N/A   Clear
4:55 PM 53.6 °F - 46.4 °F 77% 30.10 in 10.0 mi WNW 20.7 mph 25.3 mph N/A   Clear
5:15 PM 53.6 °F - 46.4 °F 77% 30.10 in 10.0 mi WNW 21.9 mph 26.5 mph N/A   Clear
5:35 PM 53.6 °F - 46.4 °F 77% 30.10 in 10.0 mi WNW 18.4 mph 24.2 mph N/A   Clear
5:55 PM 53.6 °F - 46.4 °F 77% 30.10 in 10.0 mi WNW 19.6 mph 25.3 mph N/A   Clear
6:15 PM 53.6 °F - 46.4 °F 77% 30.10 in 10.0 mi WNW 16.1 mph - N/A   Clear
6:35 PM 53.6 °F - 46.4 °F 77% 30.10 in 10.0 mi WNW 13.8 mph 24.2 mph N/A   Clear
6:55 PM 53.6 °F - 46.4 °F 77% 30.09 in 10.0 mi WNW 12.7 mph - N/A   Clear
7:15 PM 53.6 °F - 46.4 °F 77% 30.09 in 10.0 mi WNW 8.1 mph - N/A   Clear
7:35 PM 53.6 °F - 44.6 °F 72% 30.09 in 10.0 mi NW 5.8 mph - N/A   Clear
7:55 PM 53.6 °F - 46.4 °F 77% 30.09 in 10.0 mi WNW 10.4 mph - N/A   Clear
8:15 PM 53.6 °F - 46.4 °F 77% 30.09 in 10.0 mi WNW 10.4 mph - N/A   Clear
8:35 PM 53.6 °F - 44.6 °F 72% 30.09 in 10.0 mi WNW 8.1 mph - N/A   Clear
8:55 PM 51.8 °F - 44.6 °F 76% 30.10 in 10.0 mi Calm Calm - N/A   Clear
9:15 PM 50.0 °F - 44.6 °F 82% 30.10 in 10.0 mi Calm Calm - N/A   Clear
9:35 PM 50.0 °F - 44.6 °F 82% 30.11 in 10.0 mi SE 3.5 mph - N/A   Clear
9:55 PM 50.0 °F - 44.6 °F 82% 30.11 in 10.0 mi SE 3.5 mph - N/A   Clear
10:15 PM 48.2 °F - 44.6 °F 87% 30.12 in 10.0 mi Calm Calm - N/A   Clear
10:55 PM 46.4 °F 45.2 °F 44.6 °F 93% 30.14 in 10.0 mi South 3.5 mph - N/A   Clear
11:15 PM 44.6 °F 42.2 °F 42.8 °F 93% 30.14 in 10.0 mi SSE 4.6 mph - N/A   Clear
11:35 PM 44.6 °F - 42.8 °F 93% 30.15 in 7.0 mi Calm Calm - N/A   Clear
11:55 PM 44.6 °F - 42.8 °F 93% 30.15 in 7.0 mi Calm Calm - N/A   Clear